Location: Csohesd
(46.2500°N, 22.6167°E)
Time: 20:40:10
(UTC+00:00)

X-37B - Pass Details

Date: 11 December 2022
Orbit: 277 x 277 km, 45.0° (Epoch: 01 November)

Event Time Altitude Azimuth Distance (km) Brightness Sun altitude
Rises 16:00:09 0° 249° (WSW) 1,911 6.2 -12.7°
Reaches altitude 10° 16:02:06 10° 242° (WSW) 1,100 4.3 -13.0°
Maximum altitude 16:04:28 45° 167° (SSE) 388 0.6 -13.4°
Enters shadow 16:05:18 30° 113° (ESE) 536 0.9 -13.5°
